[[{"header":{"parameterUnit":"m.s-1","parameterCategory":1,"la1":30.2991,"la2":30.254,"lo1":-89.0895,"lo2":-89.0444,"dy":0.0017,"dx":0.0017,"nx":28,"ny":28,"refTime":"2025-11-23T03:00:00:Z","depth":0,"parameterNumber":2,"parameterNumberName":"U-component_of_WINDS"},"data":[0,0,0,0,0,0,0,0,0,0,0,0,0,0,0,0,0,0,0,0,0,0,0,0,0,0,0,0,0,0,0,0,0,0,0,0,0,0,0,0,0,0,0,0,0,0,0,0,0,0,0,0,0,0,0,0,0,0,-3.6536,-3.6536,0,-3.66,-3.6601,-3.6602,-3.6589,-3.6587,-3.6586,-3.6585,-3.665,-3.6653,-3.6656,0,0,0,0,0,0,0,0,0,0,0,0,0,-3.6402,-3.6405,-3.6536,-3.6537,-3.6537,-3.66,-3.6601,-3.6602,-3.6589,-3.6587,-3.6586,-3.6585,-3.6649,-3.6652,-3.6656,0,0,0,0,0,0,0,0,0,0,0,0,0,-3.6463,-3.6406,-3.6536,-3.6538,-3.6539,-3.66,-3.6601,-3.6602,-3.6589,-3.6587,-3.6586,-3.6584,-3.6648,-3.6652,-3.6656,-3.6718,0,0,-3.6669,-3.6671,0,0,0,0,0,0,0,0,-3.6459,-3.6468,-3.6537,-3.6538,-3.6539,-3.6585,-3.6578,-3.6641,-3.6589,-3.657,-3.6585,-3.6583,-3.663,-3.6635,-3.6651,-3.6721,-3.6723,-3.667,-3.6672,-3.6674,-3.6675,0,0,0,0,0,0,0,-3.6455,-3.6465,-3.6561,-3.6538,-3.654,-3.6537,-3.6543,-3.659,-3.6609,-3.6572,-3.6571,-3.6579,-3.663,-3.6647,-3.6653,-3.6724,-3.6669,-3.6673,-3.6676,-3.6678,-3.6849,-3.6851,0,0,0,0,0,0,-3.645,-3.6461,-3.6559,-3.6563,-3.6494,-3.6541,-3.6548,-3.6572,-3.6608,-3.6612,-3.658,-3.6578,-3.6641,-3.6648,-3.6655,-3.6729,-3.6674,-3.6678,-3.668,-3.6847,-3.6849,-3.6852,0,0,0,0,0,0,-3.6447,-3.6459,-3.6557,-3.6512,-3.6524,-3.6545,-3.6572,-3.6574,-3.6591,-3.6615,-3.6618,-3.6594,-3.664,-3.6649,-3.6702,-3.6731,-3.668,-3.6684,-3.6845,-3.6848,-3.6851,-3.6877,0,0,0,0,0,0,-3.6443,-3.6458,-3.6481,-3.6513,-3.6527,-3.6603,-3.6573,-3.6577,-3.6599,-3.6596,-3.6629,-3.6632,-3.6639,-3.6696,-3.6707,-3.6736,-3.6687,-3.6842,-3.6846,-3.685,-3.6874,-3.6881,-3.6887,0,0,0,0,0,-3.6439,-3.6485,-3.6482,-3.6494,-3.6556,-3.6604,-3.6612,-3.6619,-3.6601,-3.6624,-3.664,-3.6631,-3.6727,-3.6702,-3.6713,-3.6744,-3.684,-3.6845,-3.6849,-3.6871,-3.688,-3.6887,0,0,0,0,0,0,-3.6455,-3.6489,-3.6486,-3.6545,-3.6572,-3.6602,-3.6631,-3.6628,-3.666,-3.6656,-3.6664,-3.6671,-3.6725,-3.6741,-3.6712,-3.6806,-3.6781,-3.6788,-3.6794,-3.6802,-3.6808,-3.6802,-3.6691,0,0,0,0,0,-3.6466,-3.6502,-3.6531,-3.658,-3.6594,-3.6611,-3.6632,-3.6635,-3.6663,-3.6674,-3.6694,-3.6721,-3.6758,-3.6781,-3.6816,-3.6878,-3.6884,-3.6905,-3.6911,-3.6917,-3.6922,-3.6956,-3.6965,-3.6867,-3.6866,-3.6866,0,0,-3.6488,-3.6511,-3.6533,-3.6584,-3.6605,-3.6642,-3.662,-3.666,-3.6688,-3.668,-3.6731,-3.6748,-3.6779,-3.6837,-3.6864,-3.6851,-3.6951,-3.6922,-3.6926,-3.6929,-3.6961,-3.6971,-3.6979,-3.687,-3.6869,-3.6869,0,0,-3.6546,-3.6568,-3.6611,-3.6634,-3.6667,-3.6679,-3.6689,-3.6721,-3.6731,-3.6783,-3.6779,-3.6813,-3.6875,-3.6898,-3.6917,-3.6989,-3.6982,-3.7,-3.7032,-3.7066,-3.7073,-3.708,-3.7105,-3.7113,-3.7006,-3.7006,-3.7006,0,-3.6568,-3.6625,-3.6634,-3.6675,-3.6697,-3.6694,-3.6738,-3.6759,-3.6802,-3.6818,-3.6804,-3.6883,-3.6905,-3.6968,-3.6985,-3.7002,-3.7014,-3.6994,-3.7072,-3.7079,-3.7085,-3.7108,-3.7118,-3.7008,-3.7008,-3.7007,-3.7007,0,-3.6651,-3.669,-3.6721,-3.6763,-3.679,-3.6832,-3.6848,-3.6874,-3.6876,-3.6889,-3.6943,-3.6969,-3.7009,-3.7025,-3.7027,-3.709,-3.7081,-3.707,-3.7044,-3.7096,-3.7118,-3.7127,-3.701,-3.701,-3.7009,-3.7009,0,0,-3.6717,-3.6766,-3.6777,-3.6796,-3.6835,-3.6865,-3.6909,-3.6949,-3.697,-3.7002,-3.7038,-3.7092,-3.7083,-3.7105,-3.7111,-3.714,-3.7194,-3.7126,-3.7126,-3.7136,-3.7264,-3.727,-3.728,-3.7192,-3.7194,-3.7195,-3.7261,0,-3.6777,-3.6853,-3.6864,-3.6931,-3.6968,-3.6967,-3.7005,-3.7033,-3.7047,-3.7081,-3.7097,-3.7135,-3.7121,-3.7134,-3.7164,-3.7181,-3.722,-3.7177,-3.7224,-3.7226,-3.7213,-3.7292,-3.7298,-3.7359,-3.727,-3.7271,-3.7272,0,-3.6857,-3.6891,-3.6961,-3.6996,-3.7012,-3.7046,-3.7084,-3.7117,-3.7149,-3.7158,-3.7185,-3.7187,-3.7233,-3.7208,-3.7271,-3.7242,-3.7262,-3.7275,-3.7277,-3.7279,-3.725,-3.7294,-3.7379,-3.7387,-3.7286,-3.7285,-3.7284,0,-3.6896,-3.696,-3.7011,-3.7028,-3.707,-3.7093,-3.7112,-3.7143,-3.7167,-3.7201,-3.7217,-3.7256,-3.7277,-3.7308,-3.7321,-3.7302,-3.7383,-3.7359,-3.7391,-3.7391,-3.7405,-3.7403,-3.7491,-3.7423,-3.7423,-3.7423,-3.7423,0,-3.6961,-3.7004,-3.7029,-3.706,-3.7108,-3.7122,-3.717,-3.7188,-3.7216,-3.725,-3.7253,-3.7286,-3.7303,-3.7338,-3.735,-3.74,-3.741,-3.7418,-3.742,-3.7416,-3.7415,-3.7427,-3.7422,-3.7425,-3.7425,-3.7424,-3.7424,0,-3.7011,-3.703,-3.7085,-3.7121,-3.7132,-3.7166,-3.7197,-3.7227,-3.7244,-3.7287,-3.7299,-3.7324,-3.7366,-3.7383,-3.7435,-3.7443,-3.75,-3.75,-3.7489,-3.7488,-3.7518,-3.7515,-3.7615,-3.7629,-3.7554,-3.7555,-3.7555,0,-3.7049,-3.7083,-3.7123,-3.7147,-3.7167,-3.7205,-3.723,-3.7246,-3.7272,-3.7313,-3.7338,-3.7381,-3.7415,-3.7483,-3.7506,-3.7546,-3.7545,-3.7578,-3.7551,-3.7546,-3.7544,-3.754,-3.7543,-3.7582,-3.7582,-3.7583,-3.7584,0,-3.7115,-3.7124,-3.7159,-3.72,-3.723,-3.7262,-3.7293,-3.7313,-3.7333,-3.7363,-3.7406,-3.7433,-3.7487,-3.7529,-3.7571,-3.7591,-3.7591,-3.7593,-3.7602,-3.7597,-3.7588,-3.7591,-3.7499,-3.7589,-3.7589,-3.7588,-3.7588,-3.7588,-3.7159,-3.7189,-3.7223,-3.7263,-3.7289,-3.7319,-3.7349,-3.737,-3.7407,-3.7452,-3.746,-3.7506,-3.754,-3.7596,-3.7618,-3.7655,-3.7647,-3.766,-3.7663,-3.7666,-3.7667,-3.7585,-3.7663,-3.7663,-3.7663,-3.7663,-3.7663,0,-3.7224,-3.7246,-3.7284,-3.7328,-3.736,-3.7359,-3.7395,-3.7422,-3.7462,-3.7494,-3.7529,-3.758,-3.7621,-3.7649,-3.7691,-3.7716,-3.7717,-3.7726,-3.7723,-3.7727,-3.7673,-3.7659,-3.7725,-3.7725,-3.7724,-3.7724,-3.7724,-3.7724,-3.7261,-3.7311,-3.7324,-3.7387,-3.741,-3.7455,-3.7475,-3.7503,-3.7529,-3.7585,-3.762,-3.7639,-3.7669,-3.7714,-3.7753,-3.776,-3.7775,-3.7784,-3.7791,-3.7738,-3.7731,-3.7725,-3.7713,-3.7788,-3.7788,-3.7842,-3.7843,-3.7843]},{"header":{"parameterUnit":"m.s-1","parameterCategory":1,"la1":30.2991,"la2":30.254,"lo1":-89.0895,"lo2":-89.0444,"dy":0.0017,"dx":0.0017,"nx":28,"ny":28,"refTime":"2025-11-23T03:00:00:Z","depth":0,"parameterNumber":3,"parameterNumberName":"V-component_of_WINDS"},"data":[0,0,0,0,0,0,0,0,0,0,0,0,0,0,0,0,0,0,0,0,0,0,0,0,0,0,0,0,0,0,0,0,0,0,0,0,0,0,0,0,0,0,0,0,0,0,0,0,0,0,0,0,0,0,0,0,0,0,3.328,3.3281,0,3.3364,3.3365,3.3366,3.3376,3.3375,3.3375,3.3374,3.3457,3.346,3.3463,0,0,0,0,0,0,0,0,0,0,0,0,0,3.3127,3.313,3.328,3.3281,3.3282,3.3363,3.3365,3.3366,3.3376,3.3375,3.3374,3.3373,3.3456,3.346,3.3463,0,0,0,0,0,0,0,0,0,0,0,0,0,3.32,3.3131,3.3279,3.3297,3.3299,3.3363,3.3365,3.3366,3.3377,3.3375,3.3374,3.3373,3.3455,3.3459,3.3464,3.3515,0,0,3.3477,3.3479,0,0,0,0,0,0,0,0,3.3196,3.3206,3.3293,3.3296,3.3299,3.3358,3.3341,3.3416,3.3377,3.3347,3.3374,3.3372,3.3425,3.3432,3.345,3.3519,3.3523,3.3478,3.348,3.3482,3.3484,0,0,0,0,0,0,0,3.3191,3.3202,3.3313,3.3295,3.3298,3.33,3.3309,3.3356,3.3392,3.335,3.3351,3.3361,3.3426,3.3446,3.3452,3.3524,3.3478,3.3482,3.3484,3.3486,3.3641,3.3643,0,0,0,0,0,0,3.3183,3.3198,3.331,3.3315,3.3243,3.3304,3.3314,3.334,3.3391,3.3398,3.3361,3.3361,3.3439,3.3447,3.3455,3.352,3.3482,3.3486,3.3489,3.364,3.3642,3.3643,0,0,0,0,0,0,3.318,3.3193,3.3307,3.3257,3.3272,3.3308,3.3337,3.3343,3.3362,3.34,3.3407,3.3375,3.3438,3.3449,3.3501,3.3523,3.3488,3.3493,3.3638,3.364,3.3642,3.365,0,0,0,0,0,0,3.3175,3.3192,3.3212,3.3257,3.3274,3.3351,3.3339,3.3345,3.337,3.337,3.3415,3.3421,3.3438,3.3494,3.3505,3.3529,3.3496,3.3636,3.3639,3.3642,3.3648,3.3652,3.3655,0,0,0,0,0,3.317,3.3209,3.3213,3.3226,3.33,3.3353,3.3362,3.3382,3.3372,3.3392,3.3417,3.3419,3.3519,3.3499,3.3512,3.3537,3.3635,3.3638,3.3641,3.3646,3.3651,3.3655,0,0,0,0,0,0,3.3164,3.3216,3.322,3.3276,3.331,3.3354,3.3381,3.3387,3.3424,3.3422,3.3444,3.3454,3.3505,3.3526,3.3504,3.359,3.3576,3.3582,3.3575,3.358,3.3584,3.3578,3.35,0,0,0,0,0,3.317,3.3208,3.3251,3.3296,3.3313,3.3344,3.3367,3.338,3.3416,3.343,3.3459,3.3493,3.3532,3.3557,3.3595,3.3651,3.3661,3.3674,3.3678,3.3681,3.3686,3.3719,3.3725,3.3654,3.3654,3.3654,0,0,3.3181,3.3214,3.3237,3.3296,3.3324,3.3363,3.3356,3.3398,3.3427,3.3436,3.3488,3.351,3.3549,3.3604,3.3629,3.3623,3.3708,3.3685,3.3687,3.3691,3.3723,3.3729,3.3735,3.3656,3.3656,3.3655,0,0,3.3222,3.325,3.3292,3.3321,3.3364,3.3384,3.3394,3.3438,3.3454,3.3506,3.3514,3.3549,3.3616,3.3644,3.3667,3.3721,3.3725,3.3733,3.3753,3.3785,3.379,3.3796,3.3816,3.3823,3.3738,3.3738,3.3738,0,3.323,3.3291,3.3312,3.3355,3.3381,3.3392,3.3435,3.3461,3.3514,3.3531,3.3524,3.3609,3.3636,3.3698,3.3712,3.373,3.3742,3.3728,3.3788,3.3793,3.3798,3.3818,3.3825,3.3738,3.3738,3.3738,3.3738,0,3.3299,3.3341,3.337,3.3422,3.3451,3.3493,3.3521,3.3548,3.3558,3.358,3.3633,3.3667,3.3713,3.3728,3.3738,3.3792,3.3787,3.3783,3.3769,3.3806,3.3824,3.3832,3.3739,3.3739,3.3739,3.3739,0,0,3.3338,3.3404,3.3414,3.3438,3.3487,3.352,3.3563,3.3609,3.3632,3.3668,3.3705,3.3762,3.376,3.3786,3.3799,3.3827,3.3869,3.382,3.3821,3.3828,3.3932,3.3935,3.3943,3.3871,3.3873,3.3874,3.3929,0,3.3386,3.3463,3.3485,3.355,3.359,3.3602,3.3639,3.3673,3.3695,3.3731,3.3754,3.3795,3.3788,3.3804,3.3832,3.3858,3.389,3.3854,3.3906,3.3908,3.3896,3.3952,3.3955,3.4005,3.3936,3.3937,3.3938,0,3.3451,3.3491,3.356,3.3606,3.3623,3.3657,3.3701,3.3736,3.3775,3.3789,3.3819,3.383,3.3876,3.3859,3.3922,3.3897,3.392,3.3936,3.3938,3.3944,3.3925,3.3961,3.4021,3.4029,3.395,3.3949,3.3948,0,3.3474,3.3544,3.3596,3.3616,3.367,3.3694,3.3717,3.3755,3.3782,3.3821,3.3839,3.3882,3.3905,3.3938,3.3961,3.3947,3.4023,3.4008,3.4036,3.4035,3.4051,3.405,3.4117,3.4065,3.4064,3.4064,3.4064,0,3.3525,3.3568,3.3607,3.3639,3.3687,3.3711,3.3758,3.3782,3.3816,3.3852,3.3865,3.3898,3.3926,3.3964,3.3982,3.4032,3.4042,3.4055,3.4059,3.4054,3.4053,3.4069,3.4067,3.4066,3.4066,3.4066,3.4065,0,3.3559,3.3587,3.3644,3.3691,3.3704,3.3738,3.3778,3.3809,3.3831,3.3877,3.3889,3.3924,3.3969,3.3995,3.4052,3.4064,3.412,3.4122,3.4107,3.4109,3.4136,3.4133,3.4217,3.423,3.4168,3.4168,3.4169,0,3.359,3.3623,3.3675,3.3701,3.3725,3.3766,3.3794,3.3819,3.3848,3.3896,3.3921,3.3968,3.4006,3.4077,3.4108,3.4151,3.4155,3.4181,3.4162,3.4156,3.4157,3.4155,3.4159,3.4185,3.4185,3.4186,3.4186,0,3.3643,3.3655,3.3696,3.3741,3.3775,3.3811,3.3848,3.3868,3.39,3.3931,3.3978,3.4008,3.4067,3.4113,3.4159,3.4183,3.419,3.4192,3.4201,3.4197,3.4187,3.4194,3.4117,3.419,3.419,3.4189,3.4189,3.4189,3.3677,3.3708,3.3749,3.3794,3.3824,3.3859,3.3891,3.3918,3.3958,3.4008,3.402,3.407,3.411,3.4173,3.4198,3.4237,3.4233,3.4245,3.4249,3.4252,3.4253,3.418,3.4246,3.4246,3.4246,3.4245,3.4245,0,3.3731,3.3759,3.38,3.3852,3.3887,3.3892,3.3933,3.3962,3.4006,3.4042,3.408,3.4135,3.418,3.4214,3.426,3.4285,3.429,3.4297,3.4295,3.4301,3.4254,3.4242,3.4292,3.4292,3.4292,3.4292,3.4292,3.4292,3.3764,3.3817,3.3834,3.3902,3.393,3.3979,3.4003,3.4034,3.4064,3.4125,3.4163,3.4185,3.4221,3.427,3.4312,3.4321,3.4338,3.4344,3.4354,3.4309,3.4304,3.4299,3.4288,3.4347,3.4347,3.4397,3.4398,3.4398]}]]